User: anonymous   Login
Location: Habighorst
(52.7089°N, 10.2278°E)
Time: 21:49:55
(UTC+00:00)
Language:

Gblst 52 Del rocket - Orbit

View from above orbital plane
View from above orbital plane
View from above satellite
View from above satellite

Ground track
Ground track

The orbit is defined by the following mean orbital elements,

1 25774U          26069.47224176 +.00000000 +00000-0 +67992-4 0 00001
2 25774  51.5282 252.9419 0374010 248.1071 127.2455 13.46767471    02
Epoch (UTC): 10 March 2026 11:20:01
Eccentricity: 0.0374010
inclination: 51.5282°
perigee height: 805 km
apogee height: 1363 km
right ascension of ascending node: 252.9419°
argument of perigee: 248.1071°
revolutions per day: 13.46767471
mean anomaly at epoch: 127.2455°

The dashed part of the orbit path shows where the satellite is in the earth's shadow,  

DLR